sat.trackr.live / text

‹ back to catalog

STARLINK-5381

NORAD 54828 · 2022-177J

PAYLOAD ACTIVE UNKNOWN

§ Identity

Operator
Country
US
Launch date
2022-12-28
Launch site
AFETR
Launch vehicle
Mass (kg)
RCS (m²)

Purposes: comms

External: N2YO · Heavens-Above · Gunter

§ Orbital elements

Epoch: 2026-09-20T21:16:38.353728Z

Period
94.27 min
Inclination
43.0020°
Eccentricity
0.0001100
Mean motion
15.27573841 rev/d
Perigee alt
482.3 km
Apogee alt
483.8 km
Semi-major
6,861.2 km
B*
1.4430e-5
RAAN
113.9039°
Arg perigee
246.4262°
Mean anomaly
113.6475°
Rev number
20,677

§ Raw data

STARLINK-53811 54828U 22177J   26263.88655502  .00000135  00000+0  14430-4 0  99982 54828  43.0020 113.9039 0001100 246.4262 113.6475 15.27573841206774

JSON: /api/v1/satellites/54828 · /tle

For live sub-satellite position, see the globe view (requires WebGL).

§ Visibility from observer

Set your observer location to see the next 7 days of passes ≥ 10°. The values pass through the URL so the page stays shareable.

No JS? Fill the form by hand. The geolocation button needs JavaScript.